timestamp,wind_dir_avg,wind_spd_avg,wind_spd_max_dir,wind_spd_gust,battery_voltage,lat,long
2022-11-22 00:04:00+00:00,298.0,14.28,294.0,18.96,12.41,47.59359,-54.27349
2022-11-22 00:14:01+00:00,305.0,11.24,308.0,13.03,12.41,47.59359,-54.27349
2022-11-22 00:24:01+00:00,310.0,13.73,306.0,17.96,12.41,47.59359,-54.27349
2022-11-22 00:34:01+00:00,310.0,15.47,302.0,20.51,12.41,47.59359,-54.27349
2022-11-22 00:44:01+00:00,315.0,13.71,317.0,17.68,12.41,47.59359,-54.27349
2022-11-22 00:54:01+00:00,298.0,13.55,295.0,17.69,12.41,47.59359,-54.27349
2022-11-22 01:04:01+00:00,309.0,11.66,300.0,14.37,12.41,47.59359,-54.27349
2022-11-22 01:14:00+00:00,306.0,11.59,312.0,13.63,12.33,47.59359,-54.27349
2022-11-22 01:24:00+00:00,296.0,13.12,303.0,16.7,12.33,47.59359,-54.27349
2022-11-22 01:34:00+00:00,293.0,12.16,289.0,14.48,12.33,47.59359,-54.27349
2022-11-22 01:44:00+00:00,293.0,13.05,299.0,17.48,12.33,47.59359,-54.27349
2022-11-22 01:54:00+00:00,289.0,10.56,299.0,13.18,12.33,47.59359,-54.27349
2022-11-22 02:04:00+00:00,294.0,9.76,294.0,12.23,12.33,47.59359,-54.27349
2022-11-22 02:14:00+00:00,306.0,12.3,317.0,14.46,12.33,47.59359,-54.27349
2022-11-22 02:24:00+00:00,302.0,10.82,307.0,12.33,12.33,47.59359,-54.27349
2022-11-22 02:34:00+00:00,279.0,5.84,277.0,10.26,12.33,47.59359,-54.27349
2022-11-22 02:44:00+00:00,274.0,8.81,277.0,11.24,12.33,47.59359,-54.27349
2022-11-22 02:54:00+00:00,283.0,8.96,275.0,10.25,12.33,47.59359,-54.27349
2022-11-22 03:04:00+00:00,299.0,8.69,304.0,10.46,12.33,47.59359,-54.27349
2022-11-22 03:14:00+00:00,281.0,8.85,272.0,11.3,12.33,47.59359,-54.27349
2022-11-22 03:24:00+00:00,284.0,8.97,283.0,11.06,12.33,47.59359,-54.27349
2022-11-22 03:34:00+00:00,287.0,8.36,282.0,10.87,12.33,47.59359,-54.27349
2022-11-22 03:44:00+00:00,286.0,10.78,290.0,12.63,12.33,47.59359,-54.27349
2022-11-22 03:54:00+00:00,290.0,10.78,291.0,12.89,12.33,47.59359,-54.27349
2022-11-22 04:04:00+00:00,286.0,8.64,284.0,10.03,12.33,47.59359,-54.27349
2022-11-22 04:14:01+00:00,282.0,8.89,280.0,10.57,12.33,47.59359,-54.27349
2022-11-22 04:24:01+00:00,282.0,9.36,283.0,10.71,12.33,47.59359,-54.27349
2022-11-22 04:34:01+00:00,284.0,9.26,285.0,10.33,12.33,47.59359,-54.27349
2022-11-22 04:44:01+00:00,279.0,10.26,287.0,11.49,12.33,47.59359,-54.27349
2022-11-22 04:54:01+00:00,285.0,7.65,286.0,9.37,12.33,47.59359,-54.27349
2022-11-22 05:04:01+00:00,277.0,8.26,290.0,10.38,12.33,47.59359,-54.27349
2022-11-22 05:14:01+00:00,262.0,7.94,263.0,10.25,12.25,47.59359,-54.27349
2022-11-22 05:24:01+00:00,269.0,6.51,278.0,8.47,12.25,47.59359,-54.27349
2022-11-22 05:34:01+00:00,249.0,6.89,257.0,8.5,12.25,47.59359,-54.27349
2022-11-22 05:44:01+00:00,266.0,8.13,265.0,9.86,12.25,47.59359,-54.27349
2022-11-22 05:54:01+00:00,275.0,6.94,272.0,9.51,12.25,47.59359,-54.27349
2022-11-22 06:04:01+00:00,286.0,7.92,285.0,9.56,12.25,47.59359,-54.27349
2022-11-22 06:14:00+00:00,293.0,6.2,282.0,9.88,12.25,47.59359,-54.27349
2022-11-22 06:24:00+00:00,281.0,6.18,281.0,10.23,12.25,47.59359,-54.27349
2022-11-22 06:34:00+00:00,279.0,7.17,280.0,9.84,12.25,47.59359,-54.27349
2022-11-22 06:44:00+00:00,266.0,6.48,277.0,8.74,12.25,47.59359,-54.27349
2022-11-22 06:54:00+00:00,277.0,8.64,280.0,10.43,12.25,47.59359,-54.27349
2022-11-22 07:04:00+00:00,283.0,8.06,282.0,10.05,12.25,47.59359,-54.27349
2022-11-22 07:14:00+00:00,271.0,7.74,271.0,10.08,12.25,47.59359,-54.27349
2022-11-22 07:24:00+00:00,260.0,7.6,266.0,10.29,12.25,47.59359,-54.27349
2022-11-22 07:34:00+00:00,263.0,7.6,259.0,10.22,12.25,47.59359,-54.27349
2022-11-22 07:44:00+00:00,264.0,7.26,259.0,9.89,12.25,47.59359,-54.27349
2022-11-22 07:54:00+00:00,269.0,8.15,268.0,10.23,12.25,47.59359,-54.27349
2022-11-22 08:04:00+00:00,279.0,7.59,276.0,10.03,12.25,47.59359,-54.27349
2022-11-22 08:14:00+00:00,262.0,7.68,264.0,9.9,12.25,47.59359,-54.27349
2022-11-22 08:24:00+00:00,253.0,6.38,258.0,9.83,12.25,47.59359,-54.27349
2022-11-22 08:34:00+00:00,246.0,5.54,255.0,9.81,12.25,47.59359,-54.27349
2022-11-22 08:44:00+00:00,249.0,5.79,261.0,9.81,12.25,47.59359,-54.27349
2022-11-22 08:54:00+00:00,255.0,5.62,269.0,9.15,12.25,47.59359,-54.27349
2022-11-22 09:04:00+00:00,258.0,5.72,256.0,10.07,12.25,47.59359,-54.27349
2022-11-22 09:14:00+00:00,247.0,4.99,250.0,7.08,12.17,47.59359,-54.27349
2022-11-22 09:24:00+00:00,243.0,4.55,251.0,6.0,12.17,47.59359,-54.27349
2022-11-22 09:34:00+00:00,234.0,4.38,234.0,4.99,12.17,47.59359,-54.27349
2022-11-22 09:44:00+00:00,229.0,4.74,226.0,5.82,12.17,47.59359,-54.27349
2022-11-22 09:54:00+00:00,233.0,5.58,244.0,8.4,12.17,47.59359,-54.27349
2022-11-22 10:04:00+00:00,254.0,7.49,253.0,10.41,12.17,47.59359,-54.27349
2022-11-22 10:14:01+00:00,237.0,7.88,243.0,10.88,12.17,47.59359,-54.27349
2022-11-22 10:24:01+00:00,246.0,9.01,249.0,10.62,12.17,47.59359,-54.27349
2022-11-22 10:34:01+00:00,233.0,8.79,238.0,11.74,12.17,47.59359,-54.27349
2022-11-22 10:44:01+00:00,247.0,9.07,250.0,10.8,12.17,47.59359,-54.27349
2022-11-22 10:54:01+00:00,245.0,6.17,248.0,10.01,12.17,47.59359,-54.27349
2022-11-22 11:04:01+00:00,239.0,6.71,249.0,10.44,12.17,47.59359,-54.27349
2022-11-22 11:14:00+00:00,235.0,5.6,246.0,9.09,12.17,47.59359,-54.27349
2022-11-22 11:24:00+00:00,223.0,4.38,233.0,5.77,12.17,47.59359,-54.27349
2022-11-22 11:34:00+00:00,221.0,4.58,220.0,5.36,12.17,47.59359,-54.27349
2022-11-22 11:44:00+00:00,228.0,3.98,231.0,4.98,12.17,47.59359,-54.27349
2022-11-22 11:54:00+00:00,230.0,5.14,234.0,5.8,12.17,47.59359,-54.27349
2022-11-22 12:04:00+00:00,238.0,5.72,248.0,10.46,12.17,47.59359,-54.27349
2022-11-22 12:14:01+00:00,242.0,7.04,253.0,10.03,13.13,47.59359,-54.27349
2022-11-22 12:24:01+00:00,231.0,8.33,237.0,9.93,13.13,47.59359,-54.27349
2022-11-22 12:34:01+00:00,232.0,8.97,238.0,10.84,13.13,47.59359,-54.27349
2022-11-22 12:44:01+00:00,228.0,9.6,222.0,11.42,13.13,47.59359,-54.27349
2022-11-22 12:54:01+00:00,229.0,8.46,227.0,9.48,13.13,47.59359,-54.27349
2022-11-22 13:04:01+00:00,230.0,9.86,223.0,12.12,13.13,47.59359,-54.27349
2022-11-22 13:14:01+00:00,221.0,12.24,,,,47.59359,-54.27349
2022-11-22 13:24:01+00:00,224.0,9.94,,,,47.59359,-54.27349
2022-11-22 13:34:01+00:00,218.0,10.91,,,,47.59359,-54.27349
2022-11-22 13:44:01+00:00,212.0,8.86,,,,47.59359,-54.27349
2022-11-22 13:54:01+00:00,216.0,11.59,,,,47.59359,-54.27349
2022-11-22 14:04:01+00:00,215.0,11.42,,,,47.59359,-54.27349
2022-11-22 14:14:00+00:00,193.0,11.65,197.0,14.88,13.29,47.59359,-54.27349
2022-11-22 14:24:00+00:00,187.0,10.57,185.0,12.25,13.29,47.59359,-54.27349
2022-11-22 14:34:00+00:00,191.0,9.54,191.0,11.04,13.29,47.59359,-54.27349
2022-11-22 14:44:00+00:00,182.0,12.13,179.0,14.46,13.29,47.59359,-54.27349
2022-11-22 14:54:00+00:00,199.0,10.73,198.0,13.34,13.29,47.59359,-54.27349
2022-11-22 15:04:00+00:00,181.0,11.23,178.0,13.16,13.29,47.59359,-54.27349
2022-11-22 15:14:00+00:00,184.0,10.72,194.0,11.97,12.89,47.59359,-54.27349
2022-11-22 15:24:00+00:00,180.0,11.6,182.0,13.42,12.89,47.59359,-54.27349
2022-11-22 15:34:00+00:00,178.0,12.76,172.0,13.96,12.89,47.59359,-54.27349
2022-11-22 15:44:00+00:00,174.0,11.39,179.0,13.3,12.89,47.59359,-54.27349
2022-11-22 15:54:00+00:00,173.0,8.89,171.0,9.9,12.89,47.59359,-54.27349
2022-11-22 16:04:00+00:00,172.0,8.24,174.0,9.58,12.89,47.59359,-54.27349
2022-11-22 16:14:00+00:00,172.0,8.77,164.0,10.12,12.57,47.59359,-54.27349
2022-11-22 16:24:00+00:00,155.0,8.1,160.0,9.3,12.57,47.59359,-54.27349
2022-11-22 16:34:00+00:00,185.0,7.64,191.0,8.76,12.57,47.59359,-54.27349
2022-11-22 16:44:00+00:00,162.0,8.99,161.0,10.38,12.57,47.59359,-54.27349
2022-11-22 16:54:00+00:00,315.0,0.01,153.0,0.0,12.57,47.59359,-54.27349
2022-11-22 17:04:00+00:00,188.0,8.14,184.0,9.52,12.57,47.59359,-54.27349
2022-11-22 17:14:01+00:00,171.0,6.71,157.0,8.23,12.49,47.59359,-54.27349
2022-11-22 17:24:01+00:00,167.0,5.72,139.0,7.79,12.49,47.59359,-54.27349
2022-11-22 17:34:01+00:00,140.0,7.41,127.0,9.82,12.49,47.59359,-54.27349
2022-11-22 17:44:01+00:00,125.0,6.84,129.0,8.44,12.49,47.59359,-54.27349
2022-11-22 17:54:01+00:00,154.0,4.34,159.0,5.66,12.49,47.59359,-54.27349
2022-11-22 18:04:01+00:00,233.0,11.41,233.0,13.64,12.49,47.59359,-54.27349
2022-11-22 18:14:00+00:00,269.0,8.65,270.0,10.04,13.29,47.59359,-54.27349
2022-11-22 18:24:00+00:00,297.0,5.77,289.0,6.84,13.29,47.59359,-54.27349
2022-11-22 18:34:00+00:00,300.0,4.48,309.0,6.06,13.29,47.59359,-54.27349
2022-11-22 18:44:00+00:00,313.0,5.61,311.0,6.44,13.29,47.59359,-54.27349
2022-11-22 18:54:00+00:00,325.0,6.79,325.0,7.3,13.29,47.59359,-54.27349
2022-11-22 19:04:00+00:00,328.0,8.2,334.0,9.02,13.29,47.59359,-54.27349
2022-11-22 19:14:01+00:00,320.0,11.92,321.0,15.02,12.89,47.59359,-54.27349
2022-11-22 19:24:01+00:00,332.0,16.42,334.0,20.08,12.89,47.59359,-54.27349
2022-11-22 19:34:01+00:00,337.0,17.69,340.0,21.82,12.89,47.59359,-54.27349
2022-11-22 19:44:01+00:00,340.0,17.73,344.0,19.94,12.89,47.59359,-54.27349
2022-11-22 19:54:01+00:00,348.0,15.14,347.0,18.06,12.89,47.59359,-54.27349
2022-11-22 20:04:01+00:00,349.0,13.5,344.0,15.25,12.89,47.59359,-54.27349
2022-11-22 20:14:00+00:00,350.0,10.5,322.0,13.94,12.57,47.59359,-54.27349
2022-11-22 20:24:00+00:00,315.0,9.62,311.0,12.04,12.57,47.59359,-54.27349
2022-11-22 20:34:00+00:00,323.0,8.59,310.0,11.51,12.57,47.59359,-54.27349
2022-11-22 20:44:00+00:00,322.0,7.85,308.0,11.09,12.57,47.59359,-54.27349
2022-11-22 20:54:00+00:00,321.0,7.39,307.0,9.79,12.57,47.59359,-54.27349
2022-11-22 21:04:00+00:00,319.0,8.05,310.0,12.16,12.57,47.59359,-54.27349
2022-11-22 21:14:00+00:00,320.0,8.28,306.0,11.66,12.41,47.59359,-54.27349
2022-11-22 21:24:00+00:00,307.0,8.97,300.0,11.26,12.41,47.59359,-54.27349
2022-11-22 21:34:00+00:00,297.0,9.04,295.0,11.01,12.41,47.59359,-54.27349
2022-11-22 21:44:00+00:00,302.0,11.11,307.0,12.69,12.41,47.59359,-54.27349
2022-11-22 21:54:00+00:00,308.0,10.99,315.0,12.6,12.41,47.59359,-54.27349
2022-11-22 22:04:00+00:00,313.0,11.26,317.0,12.92,12.41,47.59359,-54.27349
2022-11-22 22:14:00+00:00,311.0,10.88,310.0,12.4,12.41,47.59359,-54.27349
2022-11-22 22:24:00+00:00,302.0,9.87,300.0,11.94,12.41,47.59359,-54.27349
2022-11-22 22:34:00+00:00,302.0,10.29,301.0,11.82,12.41,47.59359,-54.27349
2022-11-22 22:44:00+00:00,309.0,10.98,311.0,12.54,12.41,47.59359,-54.27349
2022-11-22 22:54:00+00:00,296.0,9.97,299.0,11.54,12.41,47.59359,-54.27349
2022-11-22 23:04:00+00:00,302.0,9.66,308.0,11.0,12.41,47.59359,-54.27349
2022-11-22 23:14:01+00:00,297.0,9.02,294.0,10.7,12.33,47.59359,-54.27349
2022-11-22 23:24:01+00:00,302.0,9.51,300.0,11.3,12.33,47.59359,-54.27349
2022-11-22 23:34:01+00:00,296.0,9.23,291.0,11.12,12.33,47.59359,-54.27349
2022-11-22 23:44:01+00:00,298.0,11.2,302.0,12.13,12.33,47.59359,-54.27349
2022-11-22 23:54:01+00:00,289.0,9.33,286.0,10.62,12.33,47.59359,-54.27349
